Weather Roundup
Issued by NWS

Home | Current Version | Previous Version | Text Only | Print | Product List | Glossary On
Versions: 1 2 3 4 5 6 7 8 9 10 11 12 13 14 15 16 17 18 19 20 21 22 23 24 25 26 27 28 29 30 31 32 33 34 35 36 37 38 39 40 41 42 43 44 45 46 47 48 49 50
000
NZUS93 KARX 250010
HRRWXR

CURRENT HOURLY OBSERVATIONS ACROSS
MUCH OF THE UPPER MISSISSIPPI VALLEY
NATIONAL WEATHER SERVICE LA CROSSE WI
700 PM CDT MON JUL 24 2017


...SOUTHEAST MINNESOTA...


CITY           SKY/WX    TMP DP  RH WIND       PRES   REMARKS
ROCHESTER      PTSUNNY   71  61  70 SE10      30.06S
ROCHESTER/MAYO FAIR      72  58  60 E7        30.06S
WINONA         MOSUNNY   73  61  64 SE6       30.06S
AUSTIN         MOSUNNY   73  61  64 SE6       30.05S
ALBERT LEA     MOSUNNY   73  61  64 SE8       30.04S
DODGE CENTER   MOSUNNY   73  61  64 S8        30.06S
PRESTON        MOSUNNY   71  59  66 S7        30.08R
OWATONNA       MOSUNNY   75  63  64 SE10      30.04F
FARIBAULT      MOSUNNY   73  61  64 SE9       30.04S
$$

...ELSEWHERE IN MINNESOTA...


CITY           SKY/WX    TMP DP  RH WIND       PRES   REMARKS
MINNEAPOLIS    CLOUDY    76  60  57 SE9       30.03S
INTNL FALLS    SUNNY     77  52  41 S10       29.97R
DULUTH         MOSUNNY   67  57  70 SE9       30.05S
RED WING       SUNNY     75  55  50 SE9       30.04R
REDWOOD FALLS  MOSUNNY   76  62  62 SE9       29.99S
MANKATO        CLOUDY    75  62  64 SE9       30.03R
WORTHINGTON    SUNNY     77  64  64 SE12      29.99S
FAIRMONT       MOSUNNY   76  63  64 SE9       30.01S
$$

...SOUTHWEST WISCONSIN...


CITY           SKY/WX    TMP DP  RH WIND       PRES   REMARKS
LA CROSSE      MOSUNNY   77  60  55 SE7       30.05F
PRAIRIE DU CHI SUNNY     72  59  64 E6        30.06S
BOSCOBEL       MOSUNNY   74  61  63 CALM      30.08R
LONE ROCK      CLOUDY    74  60  61 SE5       30.07S
PLATTEVILLE    CLOUDY    73  62  68 E6        30.08S
FORT MC COY    CLOUDY    73  59  62 SE5       30.08S
CAMP DOUGLAS   MOSUNNY   75  59  57 SE7       30.08R
MAUSTON-NEW LI CLEAR     75  59  58 S5        30.07S
VIROQUA        FAIR      72  61  68 CALM      30.09S
WIS DELLS      SUNNY     74  55  50 SE5       30.08S
$$

...ELSEWHERE IN WISCONSIN...


CITY           SKY/WX    TMP DP  RH WIND       PRES   REMARKS
MILWAUKEE      MOSUNNY   69  57  65 N9        30.09S
MADISON        PTSUNNY   72  57  59 E7        30.07S
GREEN BAY      SUNNY     72  57  59 SE5       30.09S
EAU CLAIRE     CLOUDY    74  57  55 SE8       30.05S
BLACK RVR FLS  MOCLDY    77  56  49 S3        30.06S
MEDFORD        SUNNY     72  55  55 S6        30.08S
WAUSAU         SUNNY     74  54  49 S9        30.07S
WIS RAPIDS     SUNNY     75  55  49 S8        30.09S
MARSHFIELD     SUNNY     73  55  53 S9        30.08S
RICE LAKE      CLOUDY    73  56  56 S5        30.08S
$$

...NORTHEAST IOWA...


CITY           SKY/WX    TMP DP  RH WIND       PRES   REMARKS
WATERLOO       MOSUNNY   73  63  70 E9        30.03R
DUBUQUE        CLOUDY    71  60  68 E6        30.07S
DECORAH        PTSUNNY   73  61  64 S7        30.06S
MASON CITY     MOSUNNY   74  62  66 SE7       30.05S
CHARLES CITY   PTSUNNY   73  64  73 SE10      30.05F
OELWEIN          N/A    N/A N/A N/A MISG        N/A
$$

...ELSEWHERE IN IOWA...


CITY           SKY/WX    TMP DP  RH WIND       PRES   REMARKS
DES MOINES     MOSUNNY   82  62  50 SE6       30.00R
IOWA CITY      MOSUNNY   76  64  66 E9        30.05S
FORT DODGE     SUNNY     79  61  53 SE9       30.02R
MARSHALLTOWN   MOSUNNY   77  64  64 E12       30.02R
CEDAR RAPIDS   SUNNY     74  65  73 E9        30.03F
$$

...NORTHERN ILLINOIS...


CITY           SKY/WX    TMP DP  RH WIND       PRES   REMARKS
CHICAGO-OHARE  MOSUNNY   70  58  65 NE10      30.07R
CHICAGO-MIDWAY MOSUNNY   71  59  65 NE10      30.07R
MOLINE         MOSUNNY   74  63  68 E7        30.04F
ROCKFORD       MOSUNNY   76  58  53 E8        30.08S
PEORIA         MOSUNNY   77  65  66 NE8       30.03S
$$

NOTE: "FAIR" INDICATES FEW OR NO CLOUDS BELOW 12,000 FEET WITH NO
SIGNIFICANT WEATHER AND/OR OBSTRUCTIONS TO VISIBILITY. WIND
SPEEDS ARE IN MILES-PER-HOUR.




USA.gov is the U.S. government's official web portal to all federal, state and local government web resources and services.